Погода в Заплюсье

Россия / Псковская область     58°26′14″N   29°44′01″E
темп.,
°C
ветер,
м/с
пор.,
м/с
влажн.,
%
обл.,
%
осадки,
мм/ч
давл.,
гПа
погр.,
м
20 апреля, вт
вт2000:00+6в411565 0.0 1024319
03:00+3всв277062 0.0 1024156
06:00+1всв277996 0.0 1023174
09:00+6в47645 0.0 1022572
12:00+9вюв5749100 0.0 10201580
15:00+8вюв4649100 0.0 10191314
18:00+7ююв3461100 0.0 1018963
21:00+7вюв3770100 0.0 1017444
21 апреля, ср
ср2100:00+5всв2577100 0.0 1015181
03:00+5в2581100 0.0 1013319
06:00+4всв2489100 0.0 1011271
09:00+5ссв2477100 0.0 1009617
12:00+7с3564100 0.1 10061211
15:00+8с3560100 0.1 10051189
18:00+8ссз2364100 0.1 1004948
21:00+4юв11845 0.1 100510
22 апреля, чт
чт2200:00+3ююз2289100 0.0 100518
03:00+3ю23855 0.0 100548
06:00+2юз23940 0.0 100549
09:00+9юз2360100 0.0 1006342
12:00+13ю3453100 0.1 10071368
15:00+15ююз463598 0.6 10072609
18:00+15ююв454273 0.0 10072003
21:00+8ююз2284100 0.4 100960
23 апреля, пт
пт2300:00+7з3592100 1.6 1009389
03:00+6з2491100 1.6 1008297
06:00+5ю1287100 0.0 100786
09:00+5ююз3585100 0.6 1007593
12:00+4ююз3796100 1.8 1009486
15:00+8ююз3762100 2.1 10081291
18:00+7ююз476799 1.1 10081124
21:00+4ю228191 1.3 100834
24 апреля, сб
сб2400:00+2ююз228711 0.0 100843
03:000ююз26976 0.0 1007140
06:000ююз249885 0.0 1007116
09:00+2юз2392100 0.0 1007462
12:00+3зюз2395100 0.2 1008503
15:00+3зсз358699 0.4 1009594
18:00+5зсз356693 0.1 1009777
21:00+1зюз117974 0.1 100910